Regional Weather Roundup
Issued by NWS

Home | Current Version | Previous Version | Text Only | Print | Product List | Glossary Off
Versions: 1 2 3 4 5 6 7 8 9 10 11 12 13 14 15 16 17 18 19 20 21 22 23 24 25 26 27 28 29 30 31 32 33 34 35 36 37 38 39 40 41 42 43 44 45 46 47 48 49 50

000
ASUS43 KLSX 251007
RWRMO

WEATHER SUMMARY FOR MISSOURI
NATIONAL WEATHER SERVICE SPRINGFIELD MO
500 AM CDT FRI MAY 25 2018

NOTE: "FAIR" INDICATES FEW OR NO CLOUDS BELOW 12,000 FEET WITH NO
       SIGNIFICANT WEATHER AND/OR OBSTRUCTIONS TO VISIBILITY.
       CURRENT SKY AND/OR WEATHER CONDITIONS ARE NOT AVAILABLE FOR
       CHILLICOTHE AND FARMINGTON.

MOZ001>031-035>038-043-044-053-054-251100-
...NORTHERN AND WESTERN MISSOURI...

CITY           SKY/WX    TMP DP  RH WIND       PRES   REMARKS
KANSAS CTY INT LGT RAIN  67  67 100 S12       29.92F
KANSAS C DTWN  HVY RAIN  67  64  90 SE9       29.93S FOG
LEE`S SUMMIT   TSTM      65  64  97 E12       29.95F FOG
ST JOSEPH      PTCLDY    69  66  90 S7        29.91F
CHILLICOTHE      N/A     67  63  87 CALM      29.93F
KIRKSVILLE     PTCLDY    67  65  93 SE5       29.94F

$$
MOZ066>068-077>081-088>096-101>105-251100-
...SOUTHWEST MISSOURI...

CITY           SKY/WX    TMP DP  RH WIND       PRES   REMARKS
SPRINGFIELD    CLEAR     67  63  87 S10       29.96F
JOPLIN         CLOUDY    71  65  81 S7        29.94F
BRANSON        CLEAR     64  64 100 CALM      30.00F

$$
MOZ032>034-039>042-045>050-055>058-069>072-251100-
...CENTRAL MISSOURI...

CITY           SKY/WX    TMP DP  RH WIND       PRES   REMARKS
COLUMBIA       PTCLDY    69  66  90 CALM      29.96F
JEFFERSON CITY CLEAR     69  66  90 SE5       29.95F
ROLLA          CLEAR     67  64  90 S7        29.99F
SEDALIA        MOCLDY    69  67  93 SW5       29.96S
WHITEMAN AFB   CLOUDY    69  66  92 SW8       29.91S
WARRENSBURG    RAIN      68  64  88 S7        29.95F
OSAGE BEACH    PTCLDY    66  66 100 S5        29.97

$$
MOZ051-052-059>065-251100-
...EAST CENTRAL MISSOURI...

CITY           SKY/WX    TMP DP  RH WIND       PRES   REMARKS
ST LOUIS INTL  CLOUDY    73  63  70 S5        29.98F
SPIRIT OF STL  CLOUDY    67  65  93 CALM      29.96F
ST CHARLES     CLOUDY    69  65  86 E3        29.96F

$$
MOZ072>076-082>087-097>100-106>115-251100-
...SOUTH CENTRAL AND SOUTHEAST MISSOURI...

CITY           SKY/WX    TMP DP  RH WIND       PRES   REMARKS
CAPE GIRARDEAU MOCLDY    73  64  73 CALM      29.98S
FARMINGTON     CLOUDY    64  63  96 CALM      30.01F FOG
POPLAR BLUFF   FAIR      71  71 100 CALM      29.99S FOG
WEST PLAINS    CLOUDY    68  65  90 CALM      30.01F

$$




USA.gov is the U.S. government's official web portal to all federal, state and local government web resources and services.